• In Deutschland
  • Länderverzeichnis
  • Für 7 Tage
  • Wassertemperatur
  • Satellitenkarten
  • Wetterkarte
  • Widgets
  • user-avatar
    Anmelden

    Stündliche Wetter Bad Waldsee

    Heute, 19 Januar, Freitag

    Zeit Temperatur Niederschläge Wind Luftdruck Luftfeuchtigkeit
    00:00 +3°C° 2,1 mm 6 m/S 699 mmHg 89%
    01:00 +3°C° 2,1 mm 6 m/S 699 mmHg 90%
    02:00 +3°C° 1,4 mm 6 m/S 699 mmHg 89%
    03:00 +3°C° 1,4 mm 7 m/S 699 mmHg 89%
    04:00 +2°C° 1,4 mm 7 m/S 699 mmHg 88%
    05:00 +2°C° 0,7 mm 7 m/S 699 mmHg 87%
    06:00 +1°C° 0,7 mm 6 m/S 700 mmHg 87%
    07:00 +1°C° 0,7 mm 6 m/S 700 mmHg 86%
    08:00 -1°C° 0,5 mm 6 m/S 701 mmHg 86%
    09:00 -1°C° 0,5 mm 6 m/S 701 mmHg 85%
    10:00 -1°C° 0,5 mm 6 m/S 702 mmHg 85%
    11:00 -1°C° 0,3 mm 6 m/S 702 mmHg 83%
    12:00 -1°C° 0,3 mm 6 m/S 703 mmHg 81%
    13:00 +1°C° 0,3 mm 6 m/S 703 mmHg 79%
    14:00 0°C° 0,3 mm 5 m/S 703 mmHg 80%
    15:00 0°C° 0,3 mm 5 m/S 704 mmHg 81%
    16:00 0°C° 0,3 mm 4 m/S 704 mmHg 82%
    17:00 -1°C° 0,2 mm 4 m/S 704 mmHg 84%
    18:00 0°C° 0,2 mm 3 m/S 704 mmHg 87%
    19:00 -1°C° 0,2 mm 3 m/S 705 mmHg 90%
    20:00 -1°C° 0,3 mm 3 m/S 704 mmHg 91%
    21:00 -1°C° 0,3 mm 3 m/S 704 mmHg 91%
    22:00 -1°C° 0,3 mm 3 m/S 704 mmHg 92%
    23:00 -1°C° 0,9 mm 3 m/S 704 mmHg 92%

    Morgen, 20 Januar, Samstag

    Zeit Temperatur Niederschläge Wind Luftdruck Luftfeuchtigkeit
    00:00 -1°C° 0,9 mm 3 m/S 704 mmHg 93%
    01:00 -2°C° 0,9 mm 4 m/S 704 mmHg 93%
    02:00 -2°C° 0,5 mm 4 m/S 704 mmHg 92%
    03:00 -2°C° 0,5 mm 5 m/S 704 mmHg 91%
    04:00 -2°C° 0,5 mm 5 m/S 704 mmHg 90%
    05:00 -3°C° 0,5 mm 6 m/S 704 mmHg 90%
    06:00 -3°C° 0,5 mm 6 m/S 704 mmHg 89%
    07:00 -3°C° 0,5 mm 6 m/S 704 mmHg 89%
    08:00 -2°C° 0,5 mm 5 m/S 703 mmHg 90%
    09:00 -2°C° 0,5 mm 5 m/S 703 mmHg 90%
    10:00 -2°C° 0,5 mm 4 m/S 703 mmHg 91%
    11:00 -1°C° 0,5 mm 4 m/S 702 mmHg 90%
    12:00 -1°C° 0,5 mm 4 m/S 701 mmHg 89%
    13:00 0°C° 0,5 mm 3 m/S 699 mmHg 89%
    14:00 0°C° 0,5 mm 3 m/S 698 mmHg 89%
    15:00 +1°C° 0,5 mm 2 m/S 697 mmHg 89%
    16:00 +1°C° 0,5 mm 2 m/S 696 mmHg 90%
    17:00 +1°C° 1,3 mm 2 m/S 696 mmHg 91%
    18:00 -1°C° 1,3 mm 2 m/S 696 mmHg 93%
    19:00 -1°C° 1,3 mm 2 m/S 696 mmHg 95%
    20:00 -1°C° 0,7 mm 3 m/S 697 mmHg 95%
    21:00 -1°C° 0,7 mm 4 m/S 698 mmHg 95%
    22:00 -1°C° 0,7 mm 5 m/S 699 mmHg 95%
    23:00 -1°C° 0,3 mm 5 m/S 699 mmHg 94%

    übermorgen, 21 Januar, Sonntag

    Zeit Temperatur Niederschläge Wind Luftdruck Luftfeuchtigkeit
    00:00 -2°C° 0,3 mm 6 m/S 700 mmHg 94%
    01:00 -2°C° 0,3 mm 6 m/S 701 mmHg 93%
    02:00 -3°C° 0,2 mm 6 m/S 702 mmHg 93%
    03:00 -2°C° 0,2 mm 5 m/S 702 mmHg 93%
    04:00 -3°C° 0,2 mm 4 m/S 703 mmHg 93%
    05:00 -2°C° 0,1 mm 3 m/S 704 mmHg 94%
    06:00 -4°C° 0,1 mm 3 m/S 704 mmHg 94%
    07:00 -3°C° 0,1 mm 2 m/S 705 mmHg 95%
    08:00 -3°C° 0,1 mm 2 m/S 705 mmHg 95%
    09:00 -2°C° 0,1 mm 2 m/S 706 mmHg 95%
    10:00 0°C° 0,1 mm 1 m/S 706 mmHg 94%
    11:00 -1°C° 0,2 mm 2 m/S 706 mmHg 95%
    12:00 -1°C° 0,2 mm 2 m/S 706 mmHg 96%
    13:00 +1°C° 0,2 mm 2 m/S 706 mmHg 97%
    14:00 +1°C° 0,5 mm 2 m/S 706 mmHg 97%
    15:00 +1°C° 0,5 mm 2 m/S 706 mmHg 97%
    16:00 +1°C° 0,5 mm 2 m/S 705 mmHg 97%
    17:00 +1°C° 0,7 mm 2 m/S 705 mmHg 97%
    18:00 +1°C° 0,7 mm 2 m/S 705 mmHg 97%
    19:00 +1°C° 0,7 mm 2 m/S 704 mmHg 97%
    20:00 +1°C° 1,7 mm 2 m/S 704 mmHg 97%
    21:00 +1°C° 1,7 mm 2 m/S 704 mmHg 98%
    22:00 +1°C° 1,7 mm 2 m/S 704 mmHg 98%
    23:00 +1°C° 2,1 mm 3 m/S 704 mmHg 99%

    22 Januar, Montag

    Zeit Temperatur Niederschläge Wind Luftdruck Luftfeuchtigkeit
    00:00 +1°C° 2,1 mm 4 m/S 704 mmHg 99%
    01:00 +1°C° 2,1 mm 4 m/S 704 mmHg 99%
    02:00 +2°C° 2,7 mm 5 m/S 704 mmHg 99%
    03:00 +2°C° 2,7 mm 6 m/S 703 mmHg 99%
    04:00 +2°C° 2,7 mm 6 m/S 703 mmHg 99%
    05:00 +2°C° 2,7 mm 6 m/S 703 mmHg 99%
    06:00 +3°C° 2,7 mm 6 m/S 704 mmHg 99%
    07:00 +3°C° 2,7 mm 6 m/S 704 mmHg 99%
    08:00 +3°C° 1,8 mm 6 m/S 704 mmHg 99%
    09:00 +3°C° 1,8 mm 6 m/S 704 mmHg 99%
    10:00 +3°C° 1,8 mm 6 m/S 704 mmHg 99%
    11:00 +3°C° 2,1 mm 6 m/S 704 mmHg 98%
    12:00 +4°C° 2,1 mm 6 m/S 704 mmHg 98%
    13:00 +4°C° 2,1 mm 6 m/S 704 mmHg 98%
    14:00 +4°C° 1 mm 7 m/S 704 mmHg 97%
    15:00 +5°C° 1 mm 7 m/S 705 mmHg 96%
    16:00 +5°C° 1 mm 7 m/S 705 mmHg 95%
    17:00 +5°C° 0,6 mm 7 m/S 705 mmHg 94%
    18:00 +5°C° 0,6 mm 7 m/S 705 mmHg 93%
    19:00 +5°C° 0,6 mm 7 m/S 705 mmHg 92%
    20:00 +5°C° 0,8 mm 7 m/S 706 mmHg 92%
    21:00 +5°C° 0,8 mm 8 m/S 706 mmHg 92%
    22:00 +5°C° 0,8 mm 8 m/S 706 mmHg 92%
    23:00 +5°C° 1 mm 7 m/S 707 mmHg 92%

    23 Januar, Dienstag

    Zeit Temperatur Niederschläge Wind Luftdruck Luftfeuchtigkeit
    00:00 +5°C° 1 mm 6 m/S 708 mmHg 93%
    01:00 +5°C° 1 mm 6 m/S 708 mmHg 93%
    02:00 +5°C° 1,1 mm 5 m/S 709 mmHg 94%
    03:00 +5°C° 1,1 mm 4 m/S 709 mmHg 95%
    04:00 +4°C° 1,1 mm 3 m/S 710 mmHg 96%
    05:00 +5°C° 0,8 mm 4 m/S 710 mmHg 96%
    06:00 +5°C° 0,8 mm 4 m/S 711 mmHg 95%
    07:00 +6°C° 0,8 mm 5 m/S 711 mmHg 94%
    08:00 +6°C° 0,1 mm 5 m/S 712 mmHg 93%
    09:00 +6°C° 0,1 mm 5 m/S 712 mmHg 91%
    10:00 +6°C° 0,1 mm 5 m/S 712 mmHg 90%
    11:00 +6°C° 0 mm 5 m/S 713 mmHg 88%
    12:00 +7°C° 0 mm 5 m/S 713 mmHg 87%
    13:00 +7°C° 0 mm 5 m/S 713 mmHg 85%
    14:00 +7°C° 0 mm 5 m/S 713 mmHg 86%
    15:00 +6°C° 0 mm 4 m/S 713 mmHg 87%
    16:00 +6°C° 0 mm 4 m/S 714 mmHg 88%
    17:00 +5°C° 0 mm 3 m/S 714 mmHg 90%
    18:00 +4°C° 0 mm 3 m/S 714 mmHg 91%
    19:00 +4°C° 0 mm 2 m/S 715 mmHg 93%
    20:00 +4°C° 0 mm 2 m/S 715 mmHg 92%
    21:00 +3°C° 0 mm 2 m/S 715 mmHg 92%
    22:00 +3°C° 0 mm 2 m/S 715 mmHg 92%
    23:00 +3°C° 0 mm 2 m/S 715 mmHg 91%

    24 Januar, Mittwoch

    Zeit Temperatur Niederschläge Wind Luftdruck Luftfeuchtigkeit
    00:00 +3°C° 0 mm 2 m/S 715 mmHg 90%
    01:00 +3°C° 0 mm 2 m/S 715 mmHg 90%
    02:00 +2°C° 0 mm 2 m/S 715 mmHg 89%
    03:00 +3°C° 0 mm 1 m/S 715 mmHg 88%
    04:00 +3°C° 0 mm 1 m/S 714 mmHg 87%
    05:00 +3°C° 0 mm 1 m/S 714 mmHg 87%
    06:00 +3°C° 0 mm 1 m/S 714 mmHg 86%
    07:00 +3°C° 0 mm 1 m/S 714 mmHg 85%
    08:00 +4°C° 0 mm 1 m/S 714 mmHg 84%
    09:00 +4°C° 0 mm 1 m/S 714 mmHg 82%
    10:00 +5°C° 0 mm 1 m/S 714 mmHg 81%
    11:00 +7°C° 0 mm 1 m/S 714 mmHg 78%
    12:00 +8°C° 0 mm 1 m/S 713 mmHg 76%
    13:00 +9°C° 0 mm 1 m/S 713 mmHg 73%
    14:00 +9°C° 0 mm 1 m/S 713 mmHg 76%
    15:00 +8°C° 0 mm 1 m/S 712 mmHg 79%
    16:00 +8°C° 0 mm 1 m/S 712 mmHg 81%
    17:00 +7°C° 0 mm 1 m/S 712 mmHg 82%
    18:00 +6°C° 0 mm 1 m/S 712 mmHg 83%
    19:00 +5°C° 0 mm 1 m/S 712 mmHg 84%
    20:00 +4°C° 0 mm 1 m/S 712 mmHg 83%
    21:00 +4°C° 0 mm 1 m/S 712 mmHg 82%
    22:00 +4°C° 0 mm 1 m/S 712 mmHg 82%
    23:00 +4°C° 0 mm 1 m/S 712 mmHg 80%
    Mehr zeigen